[[{"header":{"parameterUnit":"m.s-1","parameterCategory":1,"la1":30.2991,"la2":30.254,"lo1":-89.0895,"lo2":-89.0444,"dy":0.0017,"dx":0.0017,"nx":28,"ny":28,"refTime":"2024-06-13T21:00:00:Z","depth":0,"parameterNumber":2,"parameterNumberName":"U-component_of_WINDS"},"data":[0,0,0,0,0,0,0,0,0,0,0,0,0,0,0,0,0,0,0,0,0,0,0,0,0,0,0,0,0,0,0,0,0,0,0,0,0,0,0,0,0,0,0,0,0,0,0,0,0,0,0,0,0,0,0,0,0,0,-1.5762,-1.5761,0,-1.5629,-1.5627,-1.5626,-1.5549,-1.5548,-1.5548,-1.5548,-1.541,-1.5406,-1.5403,0,0,0,0,0,0,0,0,0,0,0,0,0,-1.5953,-1.595,-1.5763,-1.5761,-1.5759,-1.5629,-1.5627,-1.5626,-1.5549,-1.5548,-1.5548,-1.5548,-1.5411,-1.5407,-1.5403,0,0,0,0,0,0,0,0,0,0,0,0,0,-1.585,-1.5949,-1.5763,-1.5705,-1.5699,-1.563,-1.5627,-1.5625,-1.5549,-1.5548,-1.5548,-1.5547,-1.5412,-1.5407,-1.5402,-1.5379,0,0,-1.5387,-1.5384,0,0,0,0,0,0,0,0,-1.5856,-1.5843,-1.5715,-1.5709,-1.5702,-1.5605,-1.5644,-1.5543,-1.5549,-1.5606,-1.5548,-1.5547,-1.5475,-1.5465,-1.544,-1.5373,-1.5367,-1.5386,-1.5383,-1.5381,-1.5379,0,0,0,0,0,0,0,-1.5863,-1.5848,-1.571,-1.5714,-1.5705,-1.5687,-1.5672,-1.5624,-1.5544,-1.5601,-1.5595,-1.558,-1.5471,-1.5446,-1.5437,-1.5365,-1.5386,-1.5382,-1.5379,-1.5377,-1.5276,-1.5277,0,0,0,0,0,0,-1.5879,-1.5855,-1.5714,-1.5706,-1.5779,-1.5684,-1.5667,-1.5636,-1.5545,-1.553,-1.5581,-1.5577,-1.5455,-1.5443,-1.5432,-1.5401,-1.5381,-1.5376,-1.5373,-1.5276,-1.5276,-1.5277,0,0,0,0,0,0,-1.5884,-1.5867,-1.5719,-1.5779,-1.5758,-1.5681,-1.5648,-1.5634,-1.5608,-1.5529,-1.5515,-1.5569,-1.5454,-1.5439,-1.5394,-1.5395,-1.5374,-1.5369,-1.5275,-1.5276,-1.5277,-1.5339,0,0,0,0,0,0,-1.5889,-1.5869,-1.5859,-1.5779,-1.5755,-1.5683,-1.5647,-1.5632,-1.56,-1.5594,-1.5515,-1.5501,-1.5452,-1.5402,-1.5389,-1.5388,-1.5365,-1.5275,-1.5276,-1.5276,-1.5336,-1.5342,-1.5346,0,0,0,0,0,-1.5897,-1.5881,-1.5859,-1.5843,-1.5741,-1.5684,-1.567,-1.5614,-1.56,-1.559,-1.554,-1.5504,-1.5398,-1.5398,-1.5383,-1.538,-1.5275,-1.5275,-1.5276,-1.5334,-1.5341,-1.5346,0,0,0,0,0,0,-1.5962,-1.5869,-1.5844,-1.5802,-1.5752,-1.5671,-1.5656,-1.5622,-1.5574,-1.557,-1.5503,-1.5486,-1.5448,-1.5409,-1.5412,-1.5355,-1.5332,-1.533,-1.5382,-1.5387,-1.5392,-1.5402,-1.5361,0,0,0,0,0,-1.5972,-1.5933,-1.5854,-1.5825,-1.5801,-1.5733,-1.5706,-1.5668,-1.5612,-1.559,-1.5537,-1.5485,-1.544,-1.5411,-1.5365,-1.5331,-1.5314,-1.5322,-1.5327,-1.5331,-1.533,-1.5312,-1.5315,-1.528,-1.528,-1.528,0,0,-1.5991,-1.5936,-1.5915,-1.5837,-1.5793,-1.5755,-1.5715,-1.5676,-1.5647,-1.5584,-1.5539,-1.5499,-1.5436,-1.5398,-1.5378,-1.5364,-1.5337,-1.5332,-1.5336,-1.5333,-1.5313,-1.5317,-1.532,-1.528,-1.528,-1.528,0,0,-1.6007,-1.5961,-1.5932,-1.589,-1.5826,-1.5781,-1.5775,-1.57,-1.5671,-1.5626,-1.5579,-1.5544,-1.5467,-1.5426,-1.5394,-1.54,-1.5366,-1.5387,-1.5412,-1.5395,-1.5398,-1.54,-1.5404,-1.5406,-1.5386,-1.5386,-1.5386,0,-1.6038,-1.5979,-1.5922,-1.5886,-1.5854,-1.5798,-1.577,-1.5732,-1.5655,-1.5635,-1.5621,-1.5526,-1.548,-1.5432,-1.5434,-1.541,-1.5402,-1.5395,-1.5402,-1.5404,-1.5405,-1.5408,-1.5409,-1.539,-1.5389,-1.5389,-1.5389,0,-1.6022,-1.5982,-1.5967,-1.5897,-1.5863,-1.5832,-1.5771,-1.5744,-1.5711,-1.5669,-1.5625,-1.5568,-1.5511,-1.5497,-1.5462,-1.5445,-1.5439,-1.5415,-1.539,-1.5413,-1.5414,-1.5415,-1.5394,-1.5393,-1.5392,-1.5391,0,0,-1.6072,-1.5974,-1.5969,-1.5938,-1.5865,-1.5833,-1.58,-1.5746,-1.5725,-1.5676,-1.5647,-1.5586,-1.5565,-1.5529,-1.549,-1.5476,-1.5487,-1.5453,-1.5451,-1.5463,-1.5467,-1.5487,-1.5489,-1.5465,-1.5464,-1.5464,-1.5473,0,-1.6077,-1.6015,-1.5965,-1.5923,-1.5886,-1.5835,-1.5807,-1.576,-1.5721,-1.5685,-1.5642,-1.56,-1.5573,-1.5553,-1.5536,-1.5489,-1.5487,-1.5488,-1.5438,-1.5437,-1.5456,-1.5489,-1.5508,-1.5519,-1.5473,-1.5473,-1.5473,0,-1.6074,-1.6029,-1.5983,-1.5917,-1.59,-1.5876,-1.5824,-1.579,-1.5737,-1.571,-1.5674,-1.5634,-1.5599,-1.558,-1.5531,-1.5533,-1.551,-1.5485,-1.5484,-1.5477,-1.5456,-1.5483,-1.552,-1.5523,-1.5473,-1.5473,-1.5473,0,-1.6116,-1.6044,-1.6008,-1.5983,-1.5905,-1.589,-1.5856,-1.5803,-1.5775,-1.573,-1.5711,-1.5663,-1.5636,-1.5601,-1.555,-1.554,-1.5508,-1.5483,-1.5485,-1.5487,-1.548,-1.5481,-1.5514,-1.5465,-1.5465,-1.5465,-1.5465,0,-1.6127,-1.6102,-1.6027,-1.6004,-1.5975,-1.5919,-1.5892,-1.5855,-1.5809,-1.5779,-1.5732,-1.5706,-1.564,-1.5607,-1.5567,-1.5535,-1.5522,-1.55,-1.549,-1.5505,-1.5508,-1.5488,-1.5486,-1.5465,-1.5465,-1.5465,-1.5465,0,-1.6168,-1.6117,-1.6075,-1.6006,-1.5988,-1.597,-1.5911,-1.5889,-1.585,-1.5813,-1.5802,-1.5739,-1.5698,-1.5644,-1.5585,-1.5559,-1.5531,-1.5515,-1.555,-1.5544,-1.5549,-1.555,-1.5571,-1.5572,-1.5523,-1.5523,-1.5524,0,-1.6178,-1.6158,-1.6088,-1.6066,-1.6035,-1.5999,-1.5971,-1.5917,-1.589,-1.5831,-1.5816,-1.5771,-1.5732,-1.5669,-1.5619,-1.5574,-1.5557,-1.5568,-1.555,-1.5567,-1.5559,-1.5561,-1.5559,-1.5572,-1.5573,-1.5574,-1.5574,0,-1.6202,-1.6179,-1.6141,-1.6095,-1.6064,-1.6025,-1.5984,-1.5969,-1.5906,-1.5879,-1.5837,-1.5807,-1.5749,-1.5706,-1.5656,-1.5622,-1.5589,-1.5581,-1.5579,-1.5593,-1.5615,-1.5605,-1.5562,-1.558,-1.5579,-1.5579,-1.5579,-1.5578,-1.6228,-1.6209,-1.6158,-1.6119,-1.6083,-1.6047,-1.6024,-1.5983,-1.5947,-1.5896,-1.5866,-1.5826,-1.5777,-1.5707,-1.5676,-1.5644,-1.5631,-1.5628,-1.5627,-1.5628,-1.5633,-1.5621,-1.5635,-1.5635,-1.5634,-1.5634,-1.5634,0,-1.6251,-1.6217,-1.6181,-1.6127,-1.6096,-1.6069,-1.6024,-1.6,-1.5966,-1.5923,-1.5888,-1.5841,-1.5801,-1.5749,-1.5705,-1.569,-1.5674,-1.5681,-1.5681,-1.5675,-1.5647,-1.5653,-1.5695,-1.5695,-1.5695,-1.5695,-1.5695,-1.5695,-1.6259,-1.6226,-1.6198,-1.6148,-1.6114,-1.6075,-1.6052,-1.6019,-1.5986,-1.5937,-1.5903,-1.5871,-1.5825,-1.5779,-1.5741,-1.5727,-1.5714,-1.5725,-1.5707,-1.5682,-1.5676,-1.5671,-1.5677,-1.5723,-1.5723,-1.5737,-1.5738,-1.5738]},{"header":{"parameterUnit":"m.s-1","parameterCategory":1,"la1":30.2991,"la2":30.254,"lo1":-89.0895,"lo2":-89.0444,"dy":0.0017,"dx":0.0017,"nx":28,"ny":28,"refTime":"2024-06-13T21:00:00:Z","depth":0,"parameterNumber":3,"parameterNumberName":"V-component_of_WINDS"},"data":[0,0,0,0,0,0,0,0,0,0,0,0,0,0,0,0,0,0,0,0,0,0,0,0,0,0,0,0,0,0,0,0,0,0,0,0,0,0,0,0,0,0,0,0,0,0,0,0,0,0,0,0,0,0,0,0,0,0,3.4135,3.4135,0,3.4114,3.4114,3.4114,3.4156,3.4157,3.4158,3.416,3.413,3.4128,3.4126,0,0,0,0,0,0,0,0,0,0,0,0,0,3.4206,3.4205,3.4135,3.4135,3.4135,3.4114,3.4114,3.4114,3.4155,3.4157,3.4159,3.416,3.4131,3.4129,3.4126,0,0,0,0,0,0,0,0,0,0,0,0,0,3.4179,3.4204,3.4135,3.4153,3.4155,3.4114,3.4114,3.4114,3.4155,3.4157,3.4159,3.4161,3.4132,3.4129,3.4126,3.4064,0,0,3.4116,3.4115,0,0,0,0,0,0,0,0,3.418,3.4176,3.4151,3.4152,3.4154,3.414,3.4128,3.4097,3.4154,3.4155,3.416,3.4162,3.4131,3.4128,3.412,3.4063,3.4062,3.4116,3.4114,3.4113,3.4112,0,0,0,0,0,0,0,3.4182,3.4177,3.4127,3.4151,3.4152,3.4161,3.4159,3.4122,3.4131,3.4155,3.4158,3.4155,3.4132,3.4122,3.4119,3.4061,3.4116,3.4113,3.4111,3.411,3.3954,3.3952,0,0,0,0,0,0,3.4183,3.4179,3.4127,3.4126,3.4173,3.4158,3.4156,3.4142,3.4132,3.4132,3.4153,3.4157,3.4127,3.4123,3.4118,3.4046,3.4113,3.411,3.4108,3.3957,3.3954,3.3951,0,0,0,0,0,0,3.4184,3.4178,3.4128,3.4153,3.4148,3.4154,3.4138,3.414,3.4131,3.4131,3.4132,3.4142,3.4128,3.4123,3.4078,3.4046,3.4108,3.4106,3.3959,3.3956,3.3953,3.3902,0,0,0,0,0,0,3.4186,3.4178,3.4156,3.4153,3.4146,3.409,3.4136,3.4139,3.4126,3.4131,3.412,3.4121,3.413,3.4083,3.4075,3.4043,3.4103,3.3962,3.3958,3.3954,3.3906,3.3897,3.3889,0,0,0,0,0,3.4188,3.4141,3.4155,3.4148,3.4119,3.4088,3.4084,3.4098,3.4123,3.41,3.4101,3.4121,3.4051,3.4078,3.407,3.4036,3.3964,3.3959,3.3954,3.391,3.3899,3.3889,0,0,0,0,0,0,3.4137,3.414,3.4156,3.4106,3.4097,3.4096,3.4067,3.4085,3.4066,3.4071,3.4086,3.4084,3.4036,3.4031,3.4061,3.3976,3.4012,3.4005,3.3981,3.397,3.3962,3.3963,3.4101,0,0,0,0,0,3.412,3.4097,3.4101,3.4056,3.4051,3.406,3.4047,3.4058,3.4048,3.4044,3.4041,3.4028,3.4004,3.3987,3.3964,3.3906,3.3904,3.3879,3.387,3.3863,3.3857,3.3826,3.3815,3.3935,3.3935,3.3935,0,0,3.4084,3.4084,3.4067,3.4046,3.404,3.4014,3.4056,3.4026,3.4006,3.4038,3.3997,3.3994,3.3982,3.3931,3.3908,3.3925,3.3823,3.3857,3.3851,3.3848,3.382,3.3808,3.3798,3.3931,3.3932,3.3932,0,0,3.4006,3.4004,3.3967,3.3961,3.3953,3.396,3.3951,3.3947,3.3948,3.3907,3.3931,3.3907,3.3864,3.3854,3.3843,3.3764,3.3782,3.3756,3.371,3.368,3.3671,3.3663,3.3634,3.3624,3.3749,3.3749,3.3749,0,3.3962,3.3926,3.3945,3.3914,3.3904,3.3935,3.3897,3.389,3.3873,3.3864,3.3885,3.3834,3.3827,3.3774,3.3755,3.3746,3.3735,3.3756,3.3671,3.3663,3.3655,3.3628,3.3618,3.3746,3.3747,3.3747,3.3747,0,3.3872,3.3846,3.3817,3.3805,3.3791,3.3756,3.3769,3.3752,3.3765,3.3769,3.3728,3.3721,3.3698,3.3687,3.3698,3.3636,3.3647,3.3669,3.3705,3.3641,3.3615,3.3605,3.3742,3.3743,3.3744,3.3745,0,0,3.3758,3.3759,3.3748,3.3743,3.3737,3.3717,3.3684,3.3664,3.365,3.3638,3.361,3.3574,3.3595,3.3583,3.3594,3.3568,3.3505,3.3593,3.3593,3.3576,3.3436,3.3419,3.3407,3.3518,3.3516,3.3514,3.3437,0,3.3681,3.3627,3.3644,3.3589,3.3565,3.3595,3.3567,3.3559,3.3562,3.3541,3.3544,3.3519,3.3549,3.3542,3.3517,3.3518,3.3477,3.3524,3.349,3.3489,3.3492,3.3394,3.3376,3.3303,3.3428,3.3426,3.3425,0,3.3583,3.3571,3.3514,3.3514,3.3505,3.3479,3.3463,3.3443,3.3435,3.3439,3.3427,3.3444,3.341,3.3447,3.34,3.3431,3.3419,3.3417,3.3415,3.3411,3.3452,3.3387,3.328,3.3269,3.3409,3.3411,3.3412,0,3.3505,3.3474,3.3437,3.3432,3.3431,3.3412,3.341,3.3405,3.3392,3.3378,3.337,3.335,3.3339,3.3323,3.3334,3.336,3.3285,3.3323,3.3286,3.3286,3.3268,3.3268,3.3157,3.3261,3.3261,3.3261,3.3261,0,3.3417,3.338,3.3403,3.3379,3.334,3.3359,3.3319,3.332,3.3315,3.3292,3.3316,3.3293,3.3308,3.3286,3.3293,3.3253,3.3248,3.3249,3.3252,3.3247,3.3247,3.3238,3.3243,3.3258,3.3259,3.3259,3.326,0,3.3323,3.3336,3.3298,3.3301,3.3301,3.3272,3.3274,3.3252,3.3258,3.3228,3.3221,3.323,3.3205,3.3215,3.3187,3.3192,3.3141,3.315,3.3145,3.3147,3.311,3.3113,3.2988,3.2972,3.3086,3.3085,3.3084,0,3.3265,3.3239,3.324,3.3228,3.3226,3.3204,3.3193,3.3211,3.3198,3.3188,3.3167,3.3145,3.3128,3.3087,3.3089,3.3068,3.3077,3.3034,3.3073,3.307,3.3076,3.3077,3.3074,3.3026,3.3025,3.3024,3.3023,0,3.3161,3.3169,3.3153,3.314,3.3127,3.3116,3.3107,3.3095,3.3113,3.3096,3.3073,3.3061,3.3035,3.3012,3.2994,3.299,3.3009,3.3011,3.3001,3.2996,3.2993,3.2994,3.3123,3.3013,3.3014,3.3015,3.3015,3.3016,3.3083,3.3061,3.306,3.3041,3.3038,3.303,3.301,3.3015,3.2996,3.2979,3.299,3.2962,3.2956,3.2934,3.2928,3.2906,3.2922,3.2908,3.2904,3.29,3.2896,3.2998,3.2902,3.2903,3.2903,3.2903,3.2903,0,3.298,3.2981,3.2964,3.2953,3.2939,3.2961,3.2953,3.2939,3.2915,3.2909,3.2893,3.2866,3.2845,3.2847,3.2827,3.2809,3.2817,3.2803,3.2804,3.2803,3.2882,3.2892,3.2797,3.2797,3.2797,3.2797,3.2797,3.2797,3.2924,3.2889,3.2898,3.2861,3.2862,3.2838,3.2832,3.2824,3.2819,3.2789,3.2773,3.2776,3.2772,3.2753,3.2734,3.2735,3.2726,3.2709,3.2713,3.2787,3.2797,3.2807,3.2817,3.2707,3.2707,3.2636,3.2635,3.2635]}]]